Hourly Data Report for September 10, 2017

All times are specified in Local Standard Time (LST). Add 1 hour to adjust for Daylight Saving Time where and when it is observed.

PANGNIRTUNG
NUNAVUT

66°08'36.300" N
65°42'40.500" W
22.60 m
2403049
71826
WXP

Download Data

Hourly Data (September 2017)
Hourly Data Report for September 10, 2017
Temp Definition
°C
Dew Point Temp Definition
°C
Rel Hum Definition
%
Wind Dir Definition
10's deg

Wind Spd Definition
km/h
Visibility Definition
km
Stn Press Definition
kPa
Hmdx Definition


Wind Chill Definition


Weather Definition


TIME
00:00 2.3 -0.2 84 25 29   98.80     LegendNANA
01:00 2.3 -0.5 82 26 23   98.90     LegendNANA
02:00 2.3 -0.4 83 26 29   98.99     LegendNANA
03:00 2.3 -0.3 83 27 27   99.09     LegendNANA
04:00 2.3 -0.8 80 27 28   99.19     LegendNANA
05:00 2.0 -1.0 80 27 28   99.29     LegendNANA
06:00 2.1 -1.1 79 27 32   99.37     LegendNANA
07:00 2.1 -1.2 79 26 29   99.44     LegendNANA
08:00 1.9 -0.5 84 27 38   99.52     LegendNANA
09:00 2.2 -0.9 79 27 33   99.62     LegendNANA
10:00 1.9 -0.8 82 28 24   99.73     LegendNANA
11:00 2.7 -2.1 71 29 19   99.80     LegendNANA
12:00 2.6 -0.8 78 27 32   99.86     LegendNANA
13:00 2.9 -1.0 76 27 27   99.94     LegendNANA
14:00 2.4 -1.4 76 28 33   100.07     LegendNANA
15:00 2.0 -2.5 72 27 39   100.17     LegendNANA
16:00 1.6 -3.2 70 28 34   100.30     LegendNANA
17:00 1.4 -3.8 68 27 27   100.34     LegendNANA
18:00 1.3 -3.6 70 27 30   100.39     LegendNANA
19:00 1.1 -3.8 70 26 27   100.45     LegendNANA
20:00 1.0 -3.5 72 27 29   100.50     LegendNANA
21:00 1.0 -3.4 73 27 27   100.51     LegendNANA
22:00 0.7 -3.1 76 27 32   100.52     LegendNANA
23:00 1.0 -4.1 69 27 25   100.53     LegendNANA

Notes on Data Quality.

Legend

  • E = Estimated
  • M = Missing
  • NA = Not Available
  • ‡ = Partner data that is not subject to review by the National Climate Archives
Date modified: